sat.trackr.live / text

‹ back to catalog

KUIPER-00610

NORAD 69292 · 2026-118AB

PAYLOAD ACTIVE UNKNOWN

§ Identity

Operator
Country
US
Launch date
2026-05-29
Launch site
AFETR
Launch vehicle
Mass (kg)
RCS (m²)

External: N2YO · Heavens-Above · Gunter

§ Orbital elements

Epoch: 2026-09-20T05:05:07.190592Z

Period
97.30 min
Inclination
51.9027°
Eccentricity
0.0000322
Mean motion
14.79930903 rev/d
Perigee alt
629.3 km
Apogee alt
629.8 km
Semi-major
7,007.7 km
B*
5.3431e-5
RAAN
332.9685°
Arg perigee
72.6685°
Mean anomaly
287.4313°
Rev number
1,833

§ Raw data

KUIPER-006101 69292U 26118AB  26263.21188878  .00000186  00000+0  53431-4 0  99922 69292  51.9027 332.9685 0000322  72.6685 287.4313 14.79930903 18339

JSON: /api/v1/satellites/69292 · /tle

For live sub-satellite position, see the globe view (requires WebGL).

§ Visibility from observer

Set your observer location to see the next 7 days of passes ≥ 10°. The values pass through the URL so the page stays shareable.

No JS? Fill the form by hand. The geolocation button needs JavaScript.